KBOI

Boise

Airport
ICAO code
KBOI
Summary
ICAO Region
NAM
ICAO Territory
Location

Ada County, Idaho,

Coordinates
43° 33' 52" N , 116° 13' 25" W
KCC
Airport CFIT
Altimeter Temperature Error Correction
Airport LOS
Parallel Runway Operation
Metar
Observation
KBOI 052353Z 34011KT 10SM BKN060 OVC085 08/M03 A2994 RMK AO2 WSHFT 2320 SLP141 T00831033 10106 20067 53010
Station
Boise, Boise Air Terminal
Date/Time
2023-02-05 23:53:00
Wind direction
340°
Wind speed
11 kts
Lowest cloud amount
broken clouds
Temperature
8.3°C
Dew point
-3.3°C
Humidity
43%
Weather condition
n/a

Description

Boise Airport, also known as Boise Air Terminal or Gowen Field, is a joint civil-military, commercial and general aviation airport located 3 nm south of downtown Boise in Ada County, Idaho, USA.

Climatology

Cold Semi-arid climate (Köppen climate classification BSk). - Hot, sometimes extremely hot summers and cold, sometimes very cold winters. Some snowfall during the winter. Areas featuring cold semi-arid climates are sometimes subject to major temperature swings during a 24 hour period.

Airport map

Aerial View

SKYbrary Partners:

Safety knowledge contributed by: